Wind_Speed
21 20 20 21 21 20 19 19 18 17 17 17 17 16 16 16 15 15 15 15 15 15 15 15 15 14 14 13 12 12 12 13 13 13 13 13 13 14 15 15 15 16 17 19 20 19 18 18 18 18 19 19 19 20 21 21 21 22 21 21 21 21 22 22 23 23 24 25 24 23 21 20 19 19 19 19 18 17 16 17 19 20 21 19 18
22 21 21 22 21 20 19 19 18 17 17 17 16 16 15 15 15 15 15 15 15 15 15 15 15 14 14 13 12 12 12 12 12 13 13 13 13 14 14 15 16 16 17 19 19 20 19 18 18 18 19 19 19 20 20 21 21 22 22 21 21 21 23 23 23 22 23 24 23 22 22 20 18 18 19 19 18 17 17 17 18 19 20 19 19
23 22 22 23 21 21 20 19 18 17 16 16 16 15 14 15 14 15 15 15 15 15 14 14 14 14 14 13 13 13 13 12 12 13 13 14 13 14 14 15 15 16 17 18 19 20 19 18 18 18 18 18 19 20 20 20 20 21 21 21 21 21 23 24 23 22 22 22 23 22 22 20 18 18 19 19 17 17 16 17 18 19 19 19 19
23 23 23 22 22 21 20 19 18 17 16 15 15 15 14 14 13 13 13 14 14 14 14 14 14 13 14 14 14 14 14 14 13 13 14 14 14 14 14 15 14 15 16 17 18 19 19 18 17 17 18 18 19 20 20 20 20 21 21 21 21 21 22 23 23 23 23 23 23 23 23 20 19 19 19 18 17 17 17 17 18 18 18 18 19
24 23 23 23 23 21 20 19 17 16 15 15 15 15 14 13 13 13 14 14 14 14 14 15 14 14 14 15 15 14 14 14 14 14 14 15 14 14 14 14 14 15 15 17 18 18 18 18 18 18 18 20 20 20 20 21 21 21 21 22 21 20 21 22 22 23 23 23 23 24 24 22 21 19 19 19 18 18 18 19 18 17 17 17 18
24 24 24 24 23 21 20 19 17 15 15 15 16 16 14 13 13 13 14 14 14 14 15 15 15 15 15 15 15 15 15 15 15 15 15 15 14 15 15 15 15 15 15 17 18 18 18 17 18 18 19 20 21 21 21 21 20 20 21 21 21 20 19 20 22 22 23 23 23 24 24 24 23 21 19 18 17 17 17 18 18 17 17 17 17
25 25 25 24 24 22 20 18 16 15 15 16 17 15 14 13 13 14 14 14 14 15 15 15 15 15 16 16 16 16 16 16 16 16 15 15 14 15 14 15 15 15 16 17 17 18 18 17 18 19 20 21 21 21 21 21 20 20 21 20 20 20 19 19 21 21 22 22 23 23 23 23 22 20 18 17 16 16 16 16 16 16 17 17 17
26 26 25 25 24 22 19 17 16 16 16 17 17 15 14 14 13 14 14 14 15 15 16 16 16 16 17 17 17 16 16 16 16 16 15 15 15 15 15 15 15 16 17 17 17 18 18 18 19 20 20 21 22 22 21 21 21 20 21 20 20 20 19 19 20 20 20 21 22 22 21 21 20 19 17 16 15 15 15 15 15 15 15 16 16
27 26 25 24 23 21 19 18 17 16 16 17 16 15 14 14 13 14 15 15 15 16 16 16 16 17 18 17 17 17 16 16 16 16 15 15 15 15 15 16 15 16 17 17 17 18 18 18 19 20 21 21 22 22 21 21 22 22 21 21 21 21 20 20 19 18 18 19 19 20 20 19 18 18 17 15 15 14 14 15 14 14 14 13 14
27 26 25 23 22 21 20 18 16 16 17 16 16 15 14 14 14 15 16 16 16 16 15 16 16 17 18 17 17 17 16 16 15 15 15 15 15 15 15 16 16 17 17 18 18 18 18 19 20 21 22 23 22 22 23 23 23 23 22 22 22 21 20 19 18 17 17 17 17 18 17 17 17 17 16 15 15 14 14 15 14 14 13 13 13
27 26 23 22 21 20 19 17 17 17 17 16 15 14 14 14 15 16 16 16 16 16 15 16 17 17 17 17 17 16 16 16 16 15 15 15 15 16 16 16 17 17 18 18 19 19 19 20 21 21 22 23 22 23 24 24 24 23 22 21 22 21 19 18 17 16 15 15 16 16 15 16 17 17 16 15 15 14 15 15 14 14 15 15 15
27 25 23 22 20 20 19 17 17 17 16 16 15 15 14 14 15 16 16 16 16 16 15 16 17 17 17 17 17 16 16 16 16 16 16 16 16 16 16 16 17 18 18 19 19 19 19 20 21 21 21 22 22 23 24 25 24 22 21 21 21 20 18 17 16 15 15 15 15 14 15 17 17 17 15 14 14 14 14 14 14 14 14 14 14
27 25 23 22 20 19 18 17 17 16 16 15 14 14 14 15 16 16 15 16 16 16 15 16 17 17 17 17 17 17 16 16 17 17 17 17 16 16 16 17 17 17 18 19 19 19 19 20 21 21 21 22 23 23 24 25 24 22 21 20 20 19 16 15 15 15 15 16 15 15 16 17 17 15 14 14 13 13 13 13 13 13 13 13 12
27 25 23 21 20 19 18 17 16 16 15 15 14 14 14 15 16 16 15 15 16 16 16 16 17 17 17 17 17 17 17 17 17 17 17 17 17 17 17 17 18 17 18 19 19 19 19 19 20 21 22 23 23 23 23 24 23 22 21 20 19 18 15 15 15 15 16 16 16 16 16 17 16 14 13 13 13 12 12 12 12 12 12 11 10
26 25 22 20 20 19 17 16 16 16 15 15 14 14 14 15 16 15 15 15 15 16 16 16 16 17 18 18 17 17 17 17 17 17 17 17 17 17 17 17 18 18 18 19 20 20 19 19 19 20 21 23 23 22 22 22 21 21 20 19 18 17 15 15 15 15 15 16 17 17 17 16 15 14 13 12 12 12 11 11 11 11 10 10 9
24 23 21 20 20 19 17 16 16 16 15 15 14 14 15 15 15 15 15 15 15 15 15 16 16 16 18 18 17 17 17 17 17 17 17 17 18 18 18 18 18 18 19 19 20 19 19 19 19 20 21 22 23 22 20 20 20 20 18 18 17 16 14 14 15 14 15 16 16 17 17 17 16 14 13 12 12 11 11 11 11 10 10 9 9
23 22 20 19 19 18 17 17 17 16 15 15 14 14 14 14 14 14 15 15 15 15 15 15 16 17 18 18 18 18 18 18 17 17 17 18 18 19 18 18 19 19 20 20 20 19 18 18 19 20 20 21 21 20 19 19 20 19 17 17 16 15 13 13 13 13 14 15 15 16 16 17 15 14 13 13 12 12 11 11 11 10 10 9 9
22 20 19 19 18 17 17 17 17 16 15 15 14 14 14 15 14 15 15 15 15 15 16 16 17 17 18 18 18 19 18 19 18 17 18 18 18 18 18 19 19 20 20 20 19 19 18 18 19 20 20 19 19 19 19 19 20 18 16 16 15 14 12 11 11 12 13 13 14 14 15 15 14 13 13 12 12 11 11 11 10 10 9 9 9
21 20 19 19 18 17 17 17 16 15 15 15 15 15 15 15 15 15 16 16 15 16 16 16 17 18 18 18 18 18 18 19 19 18 18 18 19 19 19 19 20 20 21 21 20 19 19 19 19 20 20 19 19 19 20 20 20 18 16 15 15 13 9 9 11 11 12 12 12 13 13 13 13 12 12 11 11 10 10 10 10 10 10 9 9
21 20 19 18 18 17 17 17 16 15 15 15 15 16 15 15 16 16 16 16 16 16 16 17 18 18 18 18 18 18 18 19 18 18 18 18 19 20 20 20 20 21 21 21 21 20 19 19 20 20 20 20 20 21 21 21 20 17 16 15 13 11 8 9 11 10 10 11 11 11 12 12 11 11 10 10 10 9 9 9 9 9 9 9 8
20 19 19 18 17 17 17 17 16 15 15 15 15 16 15 15 16 16 17 16 16 16 17 18 18 18 18 18 18 18 19 19 19 19 19 20 20 20 21 21 21 22 22 22 21 21 21 21 21 21 20 20 20 20 20 20 18 16 15 14 12 11 8 7 9 8 9 10 10 10 10 10 10 9 9 9 9 8 8 8 8 8 8 8 7
19 18 18 17 17 17 17 16 16 15 15 16 16 16 16 15 16 17 17 17 17 17 17 18 18 18 18 18 18 18 19 19 19 19 20 20 20 21 22 22 23 22 22 21 21 21 21 22 22 22 21 20 19 18 16 16 16 13 12 12 12 10 6 4 6 6 7 8 8 8 8 8 8 8 8 8 8 7 7 7 7 7 6 6 6
20 18 18 17 16 17 16 16 16 15 15 16 16 16 16 16 16 17 17 17 17 17 17 18 18 18 18 18 17 18 18 18 18 18 20 21 21 21 22 23 23 23 22 22 21 21 22 22 23 23 22 21 20 18 16 14 12 11 10 10 10 8 4 2 6 6 5 6 7 7 7 7 7 7 7 7 7 6 6 5 6 6 6 5 5
22 18 18 17 16 16 16 16 16 16 15 15 16 16 16 16 16 17 17 17 17 17 17 17 17 17 17 17 17 17 18 18 17 17 19 21 22 22 22 22 22 22 21 21 20 20 20 20 20 20 19 18 17 16 15 13 12 11 11 10 9 5 1 3 5 5 5 6 5 6 6 5 6 6 6 6 6 5 5 5 5 5 5 5 5
22 19 17 16 16 15 16 17 16 16 15 15 15 15 16 16 16 17 17 17 17 17 17 16 17 17 17 17 17 17 18 18 18 18 19 21 22 21 21 21 20 20 19 18 18 17 17 17 17 16 15 14 12 12 12 11 9 9 9 9 7 3 5 6 4 4 5 6 5 6 5 5 5 5 5 5 5 5 5 5 5 5 5 5 5
21 19 17 17 16 15 15 16 16 17 15 15 15 15 15 16 16 16 16 16 17 17 17 16 16 17 17 17 18 17 17 18 18 19 20 20 20 20 19 19 18 18 18 18 17 16 16 16 16 15 13 12 11 11 11 10 9 9 7 5 4 3 5 8 7 5 5 6 6 6 5 4 4 4 4 4 4 4 5 5 5 6 6 5 5
19 19 18 17 17 16 16 16 16 17 16 16 16 16 15 15 16 16 16 16 16 16 16 16 16 16 17 18 16 16 17 18 17 17 17 17 17 17 17 17 17 16 16 16 16 16 15 15 15 14 14 14 14 12 10 9 9 9 8 5 2 2 4 8 9 9 6 6 6 5 5 4 4 3 4 4 4 5 5 6 6 6 5 5 5
18 18 19 18 18 17 16 16 16 16 16 16 16 17 16 15 15 14 15 16 15 14 15 16 16 15 16 17 15 15 16 16 16 16 15 15 15 15 15 15 14 14 14 14 15 15 14 14 14 14 15 14 13 11 8 8 8 9 10 6 2 2 4 9 10 10 8 7 5 5 5 5 5 5 5 5 6 6 6 6 6 5 5 5 6
18 17 19 18 18 18 16 16 16 16 15 16 17 17 17 16 15 13 14 14 14 13 14 15 16 15 15 16 15 14 15 14 14 15 14 15 14 14 14 13 12 13 14 14 15 15 14 13 13 13 13 11 11 11 10 9 8 9 11 8 3 1 4 9 11 9 9 9 8 7 7 7 7 7 6 6 7 6 6 6 6 6 6 6 7
19 17 18 18 18 18 16 15 16 16 15 16 18 17 16 17 16 14 13 14 13 13 13 13 14 15 15 15 14 13 13 13 13 13 13 14 14 13 13 12 12 13 14 14 15 15 14 13 13 12 10 10 10 10 10 9 7 7 9 7 6 5 7 10 11 10 8 8 9 8 8 8 7 7 7 7 7 6 6 6 7 7 7 7 7
21 18 16 17 19 18 17 16 16 15 15 16 17 17 16 16 16 15 13 13 12 12 14 13 13 14 14 14 13 12 13 13 12 13 14 15 15 14 13 13 13 13 13 14 15 14 13 13 13 12 11 11 11 9 9 8 7 7 7 5 6 6 6 7 8 10 8 6 8 8 8 8 7 7 7 7 7 7 8 8 8 8 8 7 7
23 20 17 16 18 18 18 17 16 16 16 17 17 16 16 15 15 14 12 11 11 11 12 12 12 13 13 13 12 12 12 13 13 14 15 15 15 15 14 13 13 13 13 13 14 12 12 13 13 12 11 12 10 9 8 8 8 8 6 4 5 6 4 3 5 9 7 6 7 7 8 8 8 8 9 9 9 9 9 9 9 9 9 9 8
23 22 20 16 17 18 19 18 18 17 17 17 17 17 16 14 14 13 11 8 9 10 10 11 12 12 12 12 13 13 13 14 15 15 14 13 14 14 13 12 12 13 12 12 13 11 11 13 13 12 12 11 9 9 9 8 9 9 6 4 4 6 3 1 2 6 7 7 6 6 7 7 8 9 10 11 11 11 11 11 10 10 10 9 9
24 24 20 17 17 19 19 19 18 17 17 16 16 17 17 14 14 14 12 9 9 9 9 10 11 11 10 10 11 13 13 13 14 14 12 11 12 12 11 11 11 13 13 13 13 12 13 13 13 12 11 10 8 9 11 10 9 8 6 6 5 5 5 4 2 2 5 7 7 7 7 6 7 9 12 13 13 12 11 12 12 11 10 9 8
25 24 21 19 18 19 20 19 17 16 16 16 15 18 17 14 16 16 12 10 10 8 7 9 10 10 9 9 10 11 12 12 13 12 11 11 11 10 10 10 11 12 12 12 13 13 14 13 12 11 10 10 9 8 9 10 9 7 5 7 6 4 5 4 3 1 4 6 9 10 9 7 8 9 11 13 14 13 11 10 12 12 12 11 10
24 23 24 23 18 18 20 19 19 17 17 17 16 17 16 14 17 16 12 11 10 7 8 10 10 10 9 9 10 11 12 12 13 11 10 10 10 10 11 11 11 11 11 10 12 14 13 12 12 10 9 10 10 8 7 7 8 8 6 6 7 4 3 3 3 1 3 4 7 11 11 10 9 8 8 11 13 14 13 10 9 12 13 13 12
21 23 26 24 19 19 18 19 22 19 18 19 18 17 14 14 17 16 15 15 12 8 8 10 10 9 9 9 10 11 12 12 13 12 11 10 9 10 11 11 11 10 10 9 11 12 11 11 10 10 11 10 10 7 6 6 6 8 7 4 5 4 2 4 4 2 4 3 5 9 10 11 12 9 6 8 11 12 15 13 8 10 12 12 13
20 22 25 24 20 19 18 19 21 18 18 20 19 17 15 15 15 14 14 14 12 9 8 9 10 10 10 9 9 10 11 12 12 11 11 11 9 9 10 11 11 10 10 9 10 9 9 10 11 11 12 11 9 6 4 4 3 7 7 2 3 4 3 5 5 1 3 3 2 6 8 9 11 11 8 8 10 11 14 13 10 11 12 11 11
21 23 23 23 21 20 19 19 21 19 19 22 20 19 18 16 14 13 12 12 11 11 9 9 10 10 10 10 9 10 12 13 13 11 10 10 9 9 9 10 11 11 10 10 10 8 8 11 12 13 13 11 9 7 6 5 4 8 5 3 3 4 3 5 5 2 3 3 1 2 4 7 9 9 10 11 10 11 11 12 12 12 13 11 10
23 24 22 21 21 21 20 20 21 20 21 23 21 20 20 17 14 13 13 12 11 11 10 8 9 10 11 10 11 12 13 13 12 10 9 9 10 10 10 10 11 11 10 9 10 9 9 11 11 12 12 11 10 7 5 4 6 9 4 4 4 3 3 7 8 4 4 5 3 2 2 5 8 8 9 11 11 10 8 9 13 14 14 12 8
25 24 21 21 22 22 22 22 21 20 21 23 21 20 21 19 15 14 13 12 11 11 10 8 8 9 10 10 11 12 12 12 11 11 10 10 10 10 10 10 11 12 10 9 9 10 10 10 10 10 11 11 8 5 4 5 6 6 4 2 5 4 4 8 8 5 4 5 5 5 4 3 6 8 9 9 11 12 8 8 14 15 14 11 9
25 24 23 22 22 22 22 21 20 19 20 20 19 20 20 18 16 14 13 12 10 10 9 8 7 9 9 9 10 11 11 12 11 10 10 10 10 9 9 9 10 11 9 8 9 10 10 11 11 10 11 9 5 5 6 6 5 4 5 4 3 3 4 5 6 5 4 6 5 5 5 3 4 8 9 7 7 11 12 9 14 16 11 10 11
26 24 23 22 22 22 21 20 19 19 20 19 18 19 19 16 16 15 13 12 11 10 9 8 8 9 9 9 9 10 10 11 10 9 8 9 9 8 8 9 10 10 9 9 10 10 10 11 12 11 10 7 5 7 6 4 5 6 6 5 3 3 3 4 5 6 4 4 5 5 4 2 4 6 6 6 3 6 11 9 12 14 11 10 13
27 25 23 22 22 23 21 21 19 19 20 19 18 18 17 15 15 14 10 10 10 10 10 9 8 7 8 9 9 9 9 10 10 9 8 8 8 8 8 8 9 9 9 9 10 10 10 11 11 11 11 8 6 7 6 3 3 6 5 4 3 2 1 2 3 5 6 3 1 5 5 1 4 5 4 5 3 3 9 10 9 11 11 12 13
27 27 25 23 23 22 21 20 19 19 20 19 18 18 17 16 15 14 11 10 9 9 11 12 10 7 8 9 8 9 9 9 9 8 7 7 8 8 8 8 9 10 10 10 10 10 11 11 11 11 10 9 7 7 5 2 2 5 6 6 4 2 1 0 2 4 3 4 6 2 4 2 2 4 3 4 3 3 7 9 7 8 11 13 12
27 28 26 23 23 23 21 21 20 19 20 21 19 18 19 19 17 17 16 14 12 11 11 13 12 8 6 8 8 8 9 8 8 8 7 7 7 7 8 8 9 9 9 11 11 10 10 9 10 10 10 10 9 8 6 3 6 8 7 6 5 3 3 1 1 3 3 3 4 5 5 3 1 2 4 5 3 3 5 6 6 6 9 13 11
26 28 27 24 24 24 22 22 21 20 20 22 20 19 21 21 20 21 19 17 15 14 12 11 10 8 6 5 5 7 8 7 6 7 6 6 6 7 8 9 9 10 10 11 11 10 9 8 8 9 10 11 10 9 8 6 7 6 4 3 2 3 4 3 3 3 2 4 6 5 6 2 1 3 3 3 4 5 6 5 5 5 8 11 10
26 27 28 25 24 24 23 22 22 21 20 22 22 21 21 22 21 22 21 19 17 16 15 12 9 9 9 6 4 5 6 7 6 6 6 5 7 7 8 9 9 10 10 10 10 9 8 8 9 10 9 9 10 10 9 7 7 5 5 5 4 5 5 3 3 3 3 3 5 4 4 3 2 2 4 2 3 4 7 5 4 4 7 10 11
25 26 27 27 25 23 22 22 23 22 21 22 23 22 22 23 22 22 20 19 19 17 16 15 10 10 12 9 8 6 6 7 6 7 6 6 7 7 7 8 9 10 10 10 9 9 8 9 9 8 8 9 11 10 8 8 8 6 6 6 6 7 5 4 5 2 3 3 3 3 5 5 4 3 1 1 3 2 6 5 2 3 6 9 11
26 24 25 26 25 23 22 22 23 23 22 22 22 22 22 22 22 22 19 18 18 17 16 17 13 12 13 12 11 9 7 7 7 6 7 7 7 7 7 8 9 9 10 10 9 9 8 7 7 7 8 10 11 9 9 8 7 5 4 4 5 6 4 4 5 2 2 2 2 4 5 4 3 2 2 2 2 1 4 4 3 3 5 10 11
26 25 26 26 26 24 22 21 22 23 22 22 22 21 20 20 21 22 19 17 17 15 16 18 16 15 16 15 13 11 8 8 7 7 7 7 8 7 8 9 9 9 9 9 9 8 8 6 6 8 8 9 9 9 9 9 7 5 6 6 4 5 5 4 4 2 1 0 1 4 3 3 4 2 1 3 5 1 2 3 5 5 5 10 12
Wind_Direction
150 144 141 139 139 137 132 130 124 120 120 117 113 109 103 99 100 103 105 107 108 106 107 108 107 104 101 99 99 100 103 107 107 108 110 110 107 106 107 106 107 113 119 115 113 114 115 115 116 118 116 114 113 113 113 112 112 112 112 111 110 110 110 107 103 100 98 99 104 108 108 105 101 97 95 92 89 90 90 90 92 92 90 88 85
148 144 140 139 139 136 133 132 126 123 122 117 112 107 103 102 104 106 106 106 106 107 108 109 105 102 102 103 102 101 104 108 108 107 107 109 109 109 107 106 110 117 118 113 116 117 115 113 114 117 115 112 111 111 111 113 114 114 114 113 112 112 111 108 104 100 98 98 102 107 107 106 102 98 96 93 92 93 94 93 93 94 92 89 86
145 142 139 139 138 135 134 132 127 125 122 115 111 107 105 106 106 106 105 106 107 108 108 107 106 105 107 108 105 103 104 106 107 108 108 109 109 109 108 107 109 113 112 112 117 116 115 113 113 114 111 110 110 111 112 113 113 113 113 112 112 113 111 107 103 99 97 98 103 108 108 107 104 100 97 96 95 95 95 95 95 93 92 91 89
144 141 140 139 137 135 134 132 129 126 121 115 111 109 109 110 108 106 107 108 109 110 109 107 108 108 108 108 105 103 103 104 105 106 107 108 108 108 109 110 110 111 111 112 114 114 115 115 114 112 109 109 110 112 112 113 112 112 112 111 111 110 109 106 103 100 96 96 101 104 105 106 103 100 99 99 97 95 95 96 95 93 94 93 92
143 142 141 138 136 134 133 130 129 125 120 116 112 113 115 114 111 108 108 108 110 109 107 105 106 105 105 105 102 102 102 103 104 103 104 106 107 108 108 111 112 111 111 112 113 115 116 117 117 114 112 111 111 112 112 111 111 112 113 112 112 111 109 105 104 100 95 95 98 99 100 103 103 103 103 102 98 96 94 92 92 93 95 94 94
145 143 139 138 135 133 131 130 128 124 120 117 115 116 116 112 110 109 108 106 107 106 105 105 104 104 105 103 101 101 101 101 101 101 102 103 106 108 110 111 110 111 113 113 115 118 119 119 117 115 112 111 111 112 111 109 110 113 114 114 115 114 110 104 101 97 94 93 96 97 98 100 105 106 105 103 98 94 89 87 89 91 93 94 94
146 142 140 138 135 134 132 130 126 122 120 117 116 117 114 111 111 110 107 107 109 109 109 107 106 106 105 104 103 101 100 99 98 98 99 102 106 109 111 111 111 113 115 115 119 120 120 120 116 114 112 112 113 111 110 110 111 113 113 112 112 112 108 103 98 94 91 90 94 97 98 100 104 105 103 100 94 92 90 89 90 90 93 93 93
143 140 139 138 135 134 131 128 124 123 120 118 118 117 115 114 114 113 112 113 114 112 111 109 108 107 105 103 101 99 98 97 98 98 99 100 103 108 110 109 110 113 115 117 119 118 118 119 114 113 113 113 114 111 110 110 110 110 110 110 108 106 105 102 96 92 90 88 92 96 99 102 104 103 100 97 94 93 93 94 94 93 93 94 94
140 137 137 136 134 131 127 125 124 124 122 121 121 120 119 118 118 118 118 116 114 111 111 110 110 108 104 101 99 97 96 95 97 97 98 99 102 106 108 109 112 114 116 117 116 115 116 116 113 114 114 113 112 111 110 109 108 107 108 109 107 104 102 100 96 94 91 89 91 94 100 104 105 104 102 100 97 95 94 94 94 95 97 97 97
140 137 137 134 130 128 125 125 127 127 125 125 125 124 122 120 120 119 117 116 113 110 109 109 108 105 102 100 98 96 95 95 93 95 97 99 103 105 106 110 114 116 117 116 116 116 116 113 112 114 113 111 111 111 110 109 107 107 109 109 105 103 101 100 99 96 92 91 92 95 101 106 107 105 104 102 99 98 96 92 91 93 95 97 96
141 138 137 132 130 128 125 128 131 130 128 128 126 123 120 119 118 116 115 115 114 110 108 108 106 103 101 99 97 95 94 93 91 95 99 99 101 105 108 111 113 115 116 117 117 117 116 113 111 112 111 112 112 111 111 109 108 108 108 106 104 102 102 101 100 97 95 94 93 97 105 109 107 103 101 101 100 100 97 94 92 91 91 92 91
140 138 135 132 131 128 129 134 133 130 128 128 125 120 116 115 114 112 113 114 113 111 109 107 105 103 102 100 97 95 92 91 92 96 100 101 102 105 109 111 112 114 116 116 117 117 117 115 112 112 112 112 112 112 111 109 107 106 105 104 103 101 101 101 99 96 95 94 94 100 109 111 106 102 101 101 101 99 98 96 93 90 90 90 90
140 138 135 134 131 130 133 134 130 127 128 126 122 119 116 114 112 111 110 110 110 109 107 105 104 103 103 101 98 95 92 91 93 97 100 102 104 106 109 111 111 112 115 115 116 117 117 116 115 114 114 115 115 113 112 110 108 106 104 103 102 101 99 97 95 93 93 94 98 104 108 109 107 105 105 103 101 99 98 96 93 91 90 90 90
140 137 135 135 132 132 133 130 126 126 127 124 122 120 117 114 111 111 110 108 108 107 107 106 106 105 105 103 100 97 94 92 93 96 99 102 105 107 110 113 113 113 114 115 116 117 117 116 116 116 117 119 117 115 114 112 110 107 104 103 101 99 98 96 93 92 94 98 102 103 104 105 105 105 105 103 101 100 99 96 95 93 94 95 94
140 137 136 136 133 132 131 127 126 128 128 125 124 121 116 112 110 111 111 110 109 109 109 109 108 108 107 104 102 98 94 94 95 97 99 102 106 107 109 112 115 115 115 116 117 118 118 117 116 117 118 120 119 118 115 111 109 106 104 101 98 97 97 96 95 95 97 101 102 101 101 101 102 102 102 103 103 102 101 100 99 99 100 101 99
141 138 137 136 133 131 129 127 127 129 129 125 124 120 115 112 111 112 111 111 111 112 111 111 112 111 108 104 102 99 96 96 97 99 100 102 105 106 109 111 114 114 116 117 118 118 118 117 116 117 118 119 118 118 116 114 111 108 106 103 98 97 96 94 97 101 102 102 101 100 99 99 99 100 101 103 103 103 103 104 104 104 102 100 99
141 139 138 135 131 129 130 131 131 131 130 125 121 118 116 115 114 114 113 113 113 114 114 113 114 112 108 105 102 98 97 97 99 99 100 102 104 106 109 111 113 113 115 116 116 116 116 116 116 118 118 118 117 117 117 115 112 109 109 105 101 99 97 98 103 107 106 103 102 100 99 99 100 100 99 99 99 100 102 104 103 100 99 97 95
142 140 136 133 130 131 133 135 135 133 130 125 123 119 118 118 116 114 113 114 114 114 114 113 113 111 107 105 101 98 98 99 99 100 102 104 105 107 110 111 112 113 115 115 115 115 114 114 115 117 117 116 115 116 118 116 112 110 107 103 103 102 99 102 106 109 108 106 105 103 101 101 102 101 99 97 96 97 99 100 100 99 98 95 93
143 141 136 134 134 135 137 136 135 132 130 127 125 122 119 119 116 115 115 115 115 114 114 113 112 111 108 106 102 100 100 100 101 102 104 105 107 109 110 111 112 113 114 114 114 113 111 111 112 114 114 112 112 115 118 116 112 109 103 99 101 101 101 105 104 105 108 107 106 104 103 103 103 103 102 101 99 99 100 101 102 100 97 96 96
144 143 140 139 137 136 137 136 135 132 130 129 126 124 121 120 117 115 115 116 116 115 115 114 113 112 110 109 107 104 102 103 104 105 106 107 110 112 113 113 113 114 114 113 112 110 108 108 109 110 110 109 109 111 112 111 108 105 100 97 99 99 102 107 103 103 106 106 104 102 102 104 105 104 103 102 103 102 103 104 103 101 98 99 101
145 147 144 143 140 138 138 137 136 134 133 131 128 124 122 121 119 117 117 117 117 116 116 115 114 114 113 112 111 108 105 105 105 106 108 109 111 112 113 113 113 113 113 113 111 109 107 106 106 106 105 104 104 105 106 105 106 107 106 106 106 105 106 100 101 105 103 104 103 102 103 106 106 104 104 103 103 104 105 106 106 105 106 106 105
147 151 148 147 144 142 142 140 137 136 136 132 129 124 124 122 119 119 119 119 118 118 117 116 116 116 116 115 112 109 106 105 105 106 107 109 110 111 112 112 112 113 113 114 112 111 110 108 105 103 100 98 96 95 98 104 109 112 114 118 117 119 125 90 97 109 102 106 108 106 105 105 107 105 106 105 103 103 103 109 114 114 113 110 106
157 159 152 151 148 147 145 142 138 138 138 134 130 127 125 123 119 120 121 120 121 121 120 119 120 119 118 117 113 109 107 106 107 108 109 109 109 110 110 112 113 113 114 114 113 113 111 109 106 103 99 96 94 92 92 97 103 106 108 110 110 128 154 66 89 105 102 112 112 107 106 103 103 104 104 103 101 99 102 110 118 120 115 109 104
168 163 154 155 153 151 146 144 142 139 140 137 134 132 128 123 121 121 121 122 122 122 122 122 121 120 119 118 115 112 111 111 111 112 112 112 111 111 110 111 112 112 112 112 112 112 110 110 108 103 98 96 97 97 94 88 87 86 83 86 93 112 100 45 79 95 99 113 117 111 110 102 96 97 98 96 96 96 101 110 115 113 105 98 93
172 165 156 159 157 154 149 147 145 142 142 139 136 135 132 127 124 122 121 122 123 122 121 122 122 121 122 120 118 117 115 115 115 115 114 114 114 113 111 111 111 111 112 113 112 113 113 112 110 105 97 94 96 101 101 94 92 84 75 85 89 55 30 54 76 98 114 120 122 120 111 102 91 89 89 90 94 98 102 105 103 94 86 81 74
175 169 159 161 160 156 152 150 149 146 143 141 140 136 134 130 126 123 123 123 122 120 119 121 122 123 124 121 120 120 118 118 117 117 116 117 117 115 114 114 114 112 114 115 115 115 113 112 112 108 101 95 89 97 104 98 99 93 91 111 97 7 25 61 62 72 119 134 129 124 115 104 90 83 83 87 93 98 100 95 88 79 71 66 60
174 171 165 163 160 157 154 153 152 150 146 146 144 138 137 132 128 125 123 123 120 119 119 121 121 123 125 121 122 124 122 120 118 119 118 118 119 116 115 115 115 114 114 116 116 114 111 111 110 106 103 97 86 89 98 98 103 104 110 129 119 335 30 62 54 53 87 130 133 125 118 108 94 89 85 89 93 91 89 80 74 68 62 57 53
169 168 168 164 158 158 158 156 153 150 147 146 144 142 140 135 131 128 125 125 124 123 120 121 121 123 125 123 125 128 126 124 123 126 123 122 122 119 115 114 115 114 114 115 113 113 114 113 108 103 102 103 102 105 107 102 115 134 138 140 156 312 37 64 58 55 73 99 117 117 112 108 103 100 93 89 86 80 73 68 63 59 56 51 48
168 165 165 166 159 158 162 158 152 148 145 144 144 144 140 133 133 133 129 129 134 132 125 126 125 125 127 127 130 132 131 132 130 130 127 126 127 125 119 116 116 113 114 115 113 113 113 113 111 107 104 108 119 125 124 114 115 132 140 136 121 62 60 72 68 62 73 87 96 102 101 103 102 97 93 85 77 71 64 61 58 55 52 47 46
166 165 162 163 161 158 159 155 151 149 148 146 144 143 138 131 131 134 132 130 134 136 136 138 134 132 134 134 135 133 131 134 135 133 129 128 129 129 125 121 119 115 115 115 116 114 110 114 116 112 110 111 117 122 121 127 125 109 116 105 82 78 67 69 67 58 63 83 89 92 94 93 93 88 83 78 71 69 63 60 58 55 54 50 48
163 169 165 162 162 157 154 153 152 151 150 150 146 141 136 129 128 131 132 130 131 137 142 144 139 137 139 139 140 133 125 129 136 135 132 132 131 129 125 122 120 119 118 114 117 117 113 119 121 115 115 116 121 123 112 123 127 104 109 88 57 67 57 49 54 45 48 83 84 84 88 82 82 80 75 74 70 68 63 60 59 57 56 54 52
160 170 172 164 162 158 153 153 152 151 152 152 148 143 137 131 128 128 132 135 133 136 141 142 143 144 145 144 142 137 129 131 135 132 132 135 133 130 127 124 120 121 119 120 128 128 121 124 123 118 112 113 121 124 118 121 117 108 121 103 56 67 49 11 40 35 39 79 78 76 84 84 82 77 73 71 67 65 63 61 60 58 55 52 50
159 168 175 171 165 160 155 153 152 152 150 149 152 149 140 132 127 133 146 146 134 139 144 144 145 144 146 147 145 142 137 137 137 133 134 135 132 132 130 125 121 118 119 128 136 130 124 125 123 118 109 111 121 125 132 133 121 122 133 129 91 82 87 214 54 28 31 62 76 80 81 84 81 74 71 68 66 66 64 61 57 54 51 47 47
160 166 173 174 168 161 157 155 154 153 149 149 155 149 140 137 136 147 162 154 138 143 143 139 143 144 143 146 147 141 138 139 137 135 137 135 132 133 131 127 123 123 127 132 131 124 125 125 121 116 108 111 116 114 126 132 131 136 137 126 112 99 117 148 141 355 4 43 75 85 76 78 78 72 68 62 60 61 61 60 55 51 47 43 45
165 166 167 173 173 163 159 158 156 155 153 153 153 144 141 149 149 153 160 149 144 148 148 146 151 155 148 144 146 142 142 142 137 137 140 139 136 134 134 138 136 134 135 133 129 129 132 129 121 112 106 109 104 99 113 128 137 138 128 124 128 123 115 132 166 268 339 30 66 72 69 77 85 76 67 57 50 49 49 54 53 48 46 43 44
169 163 163 175 176 162 161 161 157 160 162 157 149 144 149 159 156 153 153 152 157 158 161 162 158 160 155 149 151 153 155 147 140 146 147 144 144 141 142 148 146 142 142 141 138 139 139 133 122 113 116 115 108 107 111 119 133 137 127 126 141 146 113 131 157 100 2 36 53 54 56 60 68 69 65 55 45 40 33 33 43 44 44 44 44
166 157 165 179 175 163 169 164 157 164 166 156 148 149 156 160 155 154 155 158 166 164 156 160 159 157 155 153 154 156 161 152 144 151 152 146 147 151 154 155 155 153 148 146 146 146 143 138 131 127 129 124 117 112 104 99 100 120 122 108 144 158 134 148 143 51 24 39 42 50 51 41 42 48 59 53 42 35 24 20 33 40 39 42 42
162 163 174 182 173 166 173 162 158 168 165 152 149 156 160 155 153 155 158 162 170 168 153 155 159 156 154 156 155 152 160 161 153 156 156 148 148 155 159 163 165 162 153 150 156 156 150 146 143 136 128 126 134 129 112 100 88 133 138 73 138 152 143 160 163 106 47 53 33 49 48 27 28 35 39 44 41 34 22 20 29 35 35 36 41
162 172 179 180 173 169 172 163 164 175 166 154 156 166 161 153 157 157 162 172 174 166 153 154 160 158 158 158 156 158 167 170 164 163 159 149 151 157 160 168 167 164 162 160 161 162 160 155 146 138 129 125 132 128 123 131 134 144 142 24 117 150 152 154 157 128 71 58 12 36 47 23 27 35 29 30 30 29 26 21 19 24 30 32 40
167 177 177 178 173 168 172 171 175 180 170 161 164 170 158 154 166 162 161 171 168 159 154 157 161 158 160 160 158 163 171 174 170 165 160 152 156 159 160 166 167 172 178 169 159 155 159 159 151 139 128 120 116 118 125 131 135 138 124 29 78 115 141 133 128 105 68 67 68 113 136 41 42 48 32 21 14 21 31 19 11 13 20 24 37
172 179 177 175 171 172 176 178 183 181 173 169 170 168 157 157 169 165 160 165 161 159 158 158 162 159 158 159 162 165 169 175 173 167 164 163 163 160 161 165 166 174 179 170 159 155 156 158 157 145 128 116 108 122 128 115 128 136 129 69 60 70 110 125 126 118 86 88 94 89 108 98 48 34 27 24 17 24 35 20 13 11 13 25 43
173 178 178 177 174 179 183 185 186 179 174 174 172 166 159 160 167 167 163 162 165 167 162 158 163 162 158 158 162 162 165 173 177 173 167 165 163 160 164 165 163 168 171 164 157 153 154 152 150 145 134 121 113 142 137 119 126 130 132 130 104 97 118 132 141 149 110 81 96 89 73 86 47 20 22 29 11 14 24 26 19 15 19 34 44
175 176 179 181 180 185 190 192 187 177 174 177 173 166 162 163 166 168 162 159 172 176 163 163 163 156 156 158 159 159 161 168 175 177 170 162 162 162 162 162 161 166 168 164 159 154 153 148 143 140 136 126 134 151 138 119 129 127 129 129 124 137 141 149 166 187 182 75 74 82 66 43 29 15 12 33 20 350 2 15 19 15 21 32 41
177 176 180 183 185 189 194 195 188 177 177 178 173 165 163 163 162 163 161 161 173 174 166 173 174 163 164 162 155 156 160 163 167 171 171 166 167 164 160 162 161 160 162 162 161 156 152 151 149 144 136 126 129 140 122 96 142 141 131 119 122 134 119 159 189 193 202 241 284 80 87 253 354 359 329 9 40 358 352 3 11 4 8 22 38
180 179 181 185 189 194 195 194 188 179 179 178 171 168 164 159 156 160 176 181 173 171 172 177 182 184 181 171 159 156 159 164 166 165 166 167 171 166 161 164 160 157 161 161 160 158 155 155 157 152 145 143 140 143 132 77 152 150 125 111 107 96 93 220 196 172 187 239 236 159 115 211 325 26 38 41 42 15 2 6 2 345 358 13 27
185 182 183 188 193 196 195 193 190 182 181 179 173 174 168 161 164 169 178 183 175 178 181 179 186 194 184 169 164 163 162 166 164 163 166 168 173 172 168 167 159 157 160 160 158 159 158 156 160 158 156 162 159 156 156 117 119 128 113 97 79 77 116 102 107 150 150 146 168 171 160 150 23 8 48 76 79 17 5 2 350 333 353 8 16
190 184 183 190 194 195 195 193 192 186 181 179 177 179 172 168 174 176 178 180 177 181 185 184 189 194 195 184 172 172 169 169 166 164 167 167 175 179 175 169 160 160 163 164 161 155 157 159 167 176 172 170 166 160 161 144 128 126 121 117 88 103 112 80 96 128 128 123 125 164 185 160 7 334 2 69 92 40 11 350 336 336 350 358 6
191 186 184 190 194 196 197 194 193 190 185 181 180 183 179 176 180 181 182 183 181 183 183 184 186 187 199 215 213 190 174 180 181 171 168 169 178 180 175 170 166 169 171 170 166 158 168 179 181 192 188 174 171 168 167 160 152 155 163 163 158 151 131 100 131 112 62 115 123 136 163 162 155 78 14 24 107 45 8 351 319 337 352 351 357
191 189 187 190 196 201 200 195 194 193 190 186 186 188 187 184 185 186 187 185 185 188 182 178 182 186 194 207 220 220 197 193 187 172 176 183 185 182 175 172 170 174 173 168 169 169 184 195 191 198 199 181 174 174 174 168 163 171 175 169 162 153 139 136 152 122 46 102 121 112 120 129 150 145 348 359 113 31 359 8 337 325 343 349 355
192 191 190 193 198 204 204 199 197 195 194 194 195 196 193 190 190 189 191 188 186 192 183 173 179 186 190 200 213 220 214 208 196 178 182 187 190 186 180 179 176 179 176 167 173 181 187 201 194 189 192 181 177 177 176 171 167 164 150 152 172 171 158 147 146 117 70 101 73 86 121 146 151 156 234 210 157 349 344 353 321 281 323 352 360
194 191 191 196 200 204 207 205 201 199 199 200 201 203 199 195 193 191 194 192 186 195 188 176 180 186 192 203 210 214 215 210 203 192 186 185 189 185 180 185 182 186 189 177 177 180 179 195 193 183 183 176 182 189 178 167 162 143 105 92 123 155 157 148 127 99 51 199 95 67 85 145 151 142 38 186 192 202 359 307 269 253 311 354 4
Height
1551 1552 1553 1554 1555 1556 1557 1558 1558 1559 1559 1560 1560 1561 1561 1561 1561 1561 1561 1562 1562 1562 1563 1563 1563 1563 1564 1564 1564 1564 1565 1565 1565 1566 1566 1567 1567 1568 1568 1568 1569 1570 1571 1571 1572 1573 1574 1574 1574 1573 1573 1573 1573 1573 1573 1573 1573 1573 1573 1574 1575 1575 1576 1577 1577 1577 1577 1576 1577 1577 1577 1578 1580 1581 1581 1582 1583 1584 1584 1584 1584 1584 1584 1584 1585
1550 1552 1553 1554 1556 1556 1558 1558 1559 1560 1560 1561 1561 1562 1561 1562 1561 1562 1562 1562 1563 1563 1563 1564 1564 1565 1565 1565 1565 1565 1565 1566 1566 1567 1567 1568 1568 1569 1569 1569 1570 1571 1571 1572 1572 1572 1574 1575 1574 1574 1574 1574 1574 1574 1574 1574 1574 1574 1575 1575 1576 1576 1577 1577 1578 1578 1578 1578 1578 1578 1578 1579 1581 1582 1582 1583 1584 1585 1585 1586 1586 1585 1585 1586 1586
1550 1552 1554 1555 1556 1557 1558 1559 1560 1560 1561 1561 1562 1562 1562 1562 1562 1562 1563 1563 1563 1563 1564 1565 1565 1565 1565 1565 1565 1566 1566 1567 1567 1568 1568 1569 1569 1569 1570 1570 1571 1571 1572 1573 1573 1573 1575 1575 1575 1574 1575 1575 1575 1575 1575 1576 1576 1576 1576 1577 1577 1578 1578 1578 1579 1579 1579 1579 1579 1579 1579 1580 1582 1583 1583 1583 1585 1586 1586 1587 1587 1587 1586 1587 1587
1551 1553 1554 1555 1557 1558 1559 1560 1560 1561 1561 1562 1563 1562 1562 1563 1563 1563 1563 1564 1564 1565 1565 1565 1566 1566 1566 1566 1566 1567 1567 1568 1568 1569 1569 1569 1570 1570 1571 1571 1571 1572 1572 1573 1574 1574 1575 1575 1575 1575 1576 1576 1577 1577 1577 1577 1577 1578 1578 1578 1579 1580 1580 1580 1580 1581 1581 1580 1580 1580 1579 1581 1583 1584 1584 1585 1586 1587 1588 1588 1588 1588 1588 1588 1588
1552 1553 1555 1556 1557 1558 1559 1560 1561 1561 1562 1563 1563 1563 1563 1563 1564 1564 1564 1565 1565 1565 1566 1566 1566 1566 1567 1567 1567 1568 1568 1569 1569 1569 1570 1570 1570 1571 1571 1572 1572 1573 1573 1574 1575 1575 1575 1575 1576 1576 1577 1578 1578 1578 1578 1578 1578 1579 1579 1580 1581 1581 1581 1581 1582 1582 1582 1581 1582 1581 1581 1582 1584 1586 1586 1586 1587 1588 1589 1589 1589 1589 1589 1589 1589
1552 1554 1555 1556 1558 1559 1560 1561 1562 1562 1563 1563 1564 1564 1564 1564 1564 1565 1565 1565 1565 1566 1566 1566 1567 1567 1568 1568 1568 1569 1569 1570 1570 1570 1570 1570 1571 1572 1572 1572 1573 1573 1574 1574 1575 1576 1576 1576 1577 1578 1579 1579 1579 1580 1580 1580 1580 1580 1581 1581 1582 1583 1583 1583 1583 1583 1583 1582 1583 1583 1582 1583 1585 1586 1587 1588 1589 1590 1590 1590 1590 1590 1590 1590 1591
1553 1555 1556 1557 1558 1560 1561 1562 1562 1563 1563 1564 1564 1565 1564 1565 1565 1565 1566 1566 1566 1566 1567 1567 1568 1568 1569 1569 1569 1570 1570 1570 1571 1571 1571 1571 1572 1573 1573 1573 1574 1574 1574 1575 1576 1577 1577 1577 1579 1579 1580 1580 1581 1581 1581 1581 1581 1582 1582 1583 1583 1584 1584 1584 1585 1584 1584 1584 1584 1584 1584 1584 1586 1587 1588 1589 1590 1591 1591 1591 1591 1591 1591 1592 1592
1554 1556 1557 1558 1559 1560 1561 1562 1563 1564 1564 1565 1565 1565 1565 1565 1566 1566 1567 1567 1567 1567 1568 1569 1569 1570 1570 1570 1570 1570 1571 1571 1571 1572 1572 1572 1573 1574 1574 1574 1575 1575 1575 1576 1577 1578 1578 1578 1580 1581 1581 1581 1581 1582 1582 1582 1583 1583 1584 1584 1585 1585 1585 1586 1586 1585 1585 1585 1585 1585 1585 1586 1588 1589 1590 1590 1591 1592 1592 1592 1592 1593 1593 1593 1593
1555 1556 1558 1559 1560 1561 1561 1562 1563 1564 1565 1565 1566 1566 1566 1566 1567 1567 1568 1568 1568 1569 1569 1570 1570 1570 1570 1571 1571 1571 1571 1572 1572 1572 1573 1573 1574 1574 1575 1575 1576 1576 1576 1577 1578 1578 1579 1580 1581 1582 1582 1582 1583 1583 1584 1584 1584 1585 1585 1586 1586 1586 1586 1587 1587 1587 1586 1587 1586 1587 1587 1588 1589 1590 1591 1592 1592 1593 1593 1593 1593 1594 1594 1594 1594
1556 1557 1559 1560 1561 1562 1562 1563 1564 1565 1566 1566 1566 1566 1567 1567 1568 1568 1568 1569 1569 1569 1570 1570 1571 1571 1571 1572 1572 1572 1572 1573 1573 1573 1573 1574 1575 1575 1576 1576 1577 1577 1578 1578 1579 1580 1580 1581 1582 1583 1583 1583 1584 1585 1585 1586 1586 1586 1587 1587 1587 1587 1588 1588 1588 1588 1588 1588 1588 1588 1589 1590 1591 1591 1592 1593 1593 1594 1594 1594 1594 1595 1595 1595 1596
1557 1559 1560 1561 1562 1562 1563 1564 1565 1566 1566 1567 1567 1567 1567 1567 1568 1569 1569 1569 1570 1570 1570 1571 1571 1571 1572 1572 1572 1573 1573 1573 1573 1574 1574 1575 1575 1576 1577 1577 1578 1579 1579 1580 1580 1581 1581 1582 1583 1584 1584 1585 1585 1586 1587 1587 1587 1588 1588 1589 1589 1589 1589 1590 1590 1589 1589 1589 1589 1590 1591 1591 1592 1592 1593 1594 1594 1595 1595 1595 1596 1596 1596 1596 1597
1558 1560 1561 1562 1563 1563 1564 1565 1566 1566 1567 1567 1567 1567 1568 1568 1569 1569 1570 1570 1570 1571 1571 1572 1572 1572 1573 1573 1574 1574 1574 1574 1574 1575 1575 1576 1576 1577 1578 1579 1579 1580 1581 1581 1582 1582 1583 1584 1585 1585 1586 1586 1587 1587 1588 1588 1589 1589 1590 1590 1590 1591 1591 1591 1591 1591 1591 1590 1591 1591 1592 1592 1593 1593 1594 1595 1596 1596 1596 1597 1597 1597 1597 1598 1598
1558 1560 1561 1562 1563 1564 1565 1566 1566 1567 1567 1568 1568 1568 1568 1569 1569 1570 1570 1571 1571 1572 1572 1573 1573 1573 1574 1574 1574 1574 1575 1575 1575 1576 1576 1576 1577 1578 1579 1580 1580 1581 1582 1582 1583 1583 1584 1585 1586 1587 1587 1588 1589 1589 1589 1590 1590 1591 1591 1592 1592 1592 1593 1593 1592 1592 1592 1592 1592 1592 1593 1593 1594 1595 1596 1596 1597 1597 1598 1598 1598 1598 1598 1599 1599
1559 1561 1562 1563 1564 1565 1566 1566 1567 1567 1568 1568 1568 1569 1569 1569 1570 1570 1571 1571 1572 1572 1573 1573 1574 1574 1574 1575 1575 1575 1576 1576 1576 1577 1577 1577 1578 1579 1580 1580 1581 1582 1582 1583 1584 1585 1586 1586 1587 1588 1589 1590 1590 1591 1591 1591 1592 1592 1592 1593 1593 1594 1594 1594 1594 1594 1594 1594 1594 1594 1594 1595 1596 1596 1597 1598 1598 1598 1599 1599 1599 1599 1599 1600 1600
1560 1562 1563 1564 1565 1566 1566 1567 1567 1568 1568 1569 1569 1569 1570 1570 1571 1571 1572 1572 1573 1573 1574 1574 1575 1575 1575 1576 1576 1577 1577 1577 1578 1578 1579 1579 1580 1580 1581 1581 1582 1583 1584 1585 1586 1586 1587 1588 1589 1589 1590 1591 1591 1592 1592 1593 1594 1594 1594 1594 1595 1595 1596 1596 1595 1595 1595 1595 1595 1596 1596 1596 1597 1598 1599 1599 1599 1600 1600 1600 1600 1600 1600 1600 1601
1562 1563 1564 1565 1565 1566 1566 1567 1568 1569 1569 1569 1570 1570 1571 1571 1572 1572 1572 1573 1574 1574 1575 1575 1575 1576 1576 1577 1577 1578 1578 1579 1579 1580 1580 1580 1581 1581 1582 1583 1583 1584 1585 1586 1587 1588 1588 1589 1590 1591 1591 1592 1592 1593 1594 1595 1595 1595 1596 1596 1596 1596 1597 1597 1597 1597 1597 1597 1597 1597 1597 1598 1599 1599 1600 1600 1600 1600 1600 1601 1601 1601 1601 1601 1601
1563 1564 1565 1565 1566 1566 1567 1568 1569 1569 1569 1570 1570 1571 1571 1572 1572 1573 1573 1574 1574 1575 1575 1576 1577 1577 1578 1578 1579 1579 1580 1580 1580 1581 1581 1582 1582 1583 1583 1584 1584 1585 1586 1587 1588 1589 1590 1590 1591 1592 1593 1593 1594 1594 1595 1596 1597 1597 1597 1598 1598 1598 1599 1599 1599 1599 1599 1599 1599 1599 1599 1600 1600 1601 1601 1601 1601 1601 1601 1601 1601 1602 1602 1602 1602
1565 1566 1566 1566 1567 1567 1568 1569 1569 1569 1570 1570 1571 1572 1572 1573 1573 1573 1574 1575 1575 1576 1576 1577 1578 1578 1579 1580 1580 1581 1581 1581 1582 1582 1583 1583 1584 1584 1585 1585 1586 1586 1587 1588 1589 1590 1591 1592 1592 1593 1594 1595 1596 1596 1597 1597 1598 1598 1599 1599 1599 1600 1600 1600 1601 1601 1601 1601 1601 1601 1601 1601 1602 1602 1602 1602 1602 1602 1602 1602 1602 1602 1602 1602 1602
1566 1567 1567 1567 1568 1568 1569 1569 1570 1570 1570 1571 1572 1573 1573 1574 1574 1574 1575 1575 1576 1577 1577 1578 1579 1580 1580 1581 1582 1582 1583 1583 1583 1584 1584 1585 1585 1586 1586 1587 1588 1588 1589 1589 1590 1592 1592 1593 1594 1595 1596 1597 1597 1598 1599 1599 1600 1600 1600 1601 1601 1601 1602 1602 1602 1602 1602 1602 1603 1603 1602 1603 1603 1603 1603 1603 1603 1603 1603 1603 1603 1603 1603 1603 1603
1566 1568 1568 1568 1568 1569 1570 1570 1571 1571 1571 1572 1573 1573 1574 1574 1575 1575 1576 1577 1577 1578 1579 1579 1580 1581 1582 1582 1583 1583 1584 1584 1585 1585 1586 1586 1587 1587 1588 1588 1589 1589 1590 1591 1592 1593 1594 1595 1595 1596 1597 1598 1599 1600 1600 1601 1601 1601 1602 1602 1602 1602 1603 1603 1603 1604 1604 1604 1604 1604 1604 1604 1604 1604 1604 1604 1604 1604 1604 1604 1604 1604 1604 1603 1603
1567 1568 1568 1569 1570 1570 1570 1571 1571 1572 1573 1573 1574 1574 1574 1575 1575 1576 1577 1578 1578 1579 1580 1581 1582 1582 1583 1584 1584 1585 1585 1586 1586 1587 1587 1588 1588 1589 1589 1590 1590 1591 1592 1593 1593 1594 1595 1596 1597 1598 1599 1600 1601 1601 1602 1602 1603 1603 1603 1604 1604 1604 1604 1604 1605 1605 1605 1605 1605 1605 1605 1605 1605 1605 1605 1605 1605 1605 1605 1605 1604 1604 1604 1604 1604
1568 1569 1569 1570 1570 1571 1571 1572 1572 1573 1574 1574 1574 1575 1575 1576 1576 1577 1578 1579 1579 1580 1581 1582 1583 1583 1584 1585 1585 1586 1586 1587 1588 1588 1589 1589 1590 1590 1591 1591 1592 1593 1593 1594 1595 1596 1597 1598 1599 1599 1600 1601 1602 1603 1603 1604 1604 1605 1605 1605 1605 1605 1605 1606 1606 1606 1606 1606 1606 1606 1606 1606 1606 1606 1606 1606 1606 1605 1605 1605 1605 1605 1605 1605 1604
1568 1569 1570 1571 1571 1572 1572 1573 1573 1574 1575 1575 1575 1575 1576 1577 1577 1578 1579 1580 1580 1581 1582 1583 1584 1584 1585 1586 1587 1587 1588 1589 1589 1590 1590 1590 1591 1592 1592 1593 1594 1594 1595 1596 1597 1597 1598 1599 1600 1601 1602 1602 1603 1604 1605 1605 1606 1606 1606 1606 1606 1606 1606 1607 1607 1607 1607 1607 1607 1607 1607 1607 1607 1607 1607 1606 1606 1606 1606 1606 1605 1605 1605 1605 1604
1568 1569 1570 1571 1572 1573 1573 1574 1574 1575 1576 1576 1577 1576 1577 1578 1578 1579 1580 1581 1581 1582 1583 1584 1585 1585 1586 1587 1588 1588 1589 1590 1591 1591 1592 1592 1593 1593 1594 1595 1595 1596 1597 1597 1598 1599 1600 1601 1601 1602 1603 1604 1604 1605 1605 1606 1607 1607 1607 1607 1607 1608 1607 1608 1608 1607 1607 1607 1607 1607 1607 1608 1608 1607 1607 1607 1607 1606 1606 1606 1606 1605 1605 1604 1604
1568 1570 1571 1572 1573 1573 1574 1574 1575 1576 1577 1577 1578 1578 1578 1579 1579 1580 1581 1582 1582 1583 1584 1585 1585 1586 1587 1588 1588 1589 1590 1591 1592 1593 1593 1594 1594 1595 1596 1596 1597 1597 1598 1599 1600 1601 1601 1602 1603 1603 1604 1605 1605 1606 1606 1607 1608 1608 1608 1608 1608 1608 1608 1608 1608 1608 1608 1608 1608 1608 1608 1608 1608 1608 1608 1608 1607 1607 1607 1606 1606 1605 1605 1604 1604
1569 1570 1571 1572 1573 1574 1575 1575 1576 1577 1578 1579 1579 1579 1580 1580 1581 1581 1582 1583 1584 1584 1585 1586 1586 1587 1588 1588 1590 1590 1591 1592 1593 1594 1595 1595 1596 1596 1597 1598 1599 1599 1600 1600 1601 1602 1603 1603 1604 1604 1605 1605 1606 1606 1607 1607 1608 1608 1608 1608 1609 1609 1609 1609 1608 1608 1608 1608 1608 1608 1608 1608 1609 1608 1608 1608 1608 1607 1607 1606 1606 1605 1605 1605 1604
1569 1570 1572 1573 1573 1574 1576 1576 1577 1578 1579 1580 1580 1580 1581 1581 1582 1583 1583 1584 1585 1585 1586 1587 1587 1588 1589 1589 1591 1591 1592 1593 1594 1595 1596 1596 1597 1598 1598 1599 1600 1600 1601 1602 1602 1603 1604 1604 1605 1605 1605 1605 1606 1606 1607 1608 1609 1609 1610 1609 1609 1609 1609 1609 1609 1608 1608 1608 1608 1609 1609 1609 1609 1609 1609 1608 1608 1607 1607 1606 1606 1606 1605 1605 1605
1569 1571 1572 1573 1574 1575 1576 1577 1577 1579 1579 1580 1581 1581 1582 1583 1583 1584 1585 1585 1586 1586 1587 1588 1588 1589 1590 1590 1591 1592 1593 1593 1594 1596 1596 1597 1598 1599 1599 1600 1601 1601 1602 1603 1603 1604 1605 1605 1605 1605 1605 1605 1606 1608 1608 1609 1610 1611 1611 1611 1610 1610 1609 1610 1609 1609 1609 1609 1609 1609 1609 1609 1609 1609 1609 1608 1608 1607 1607 1607 1606 1606 1605 1605 1605
1570 1571 1573 1573 1574 1575 1576 1577 1578 1579 1580 1581 1582 1583 1583 1584 1584 1585 1586 1587 1587 1588 1588 1589 1589 1590 1591 1591 1592 1593 1593 1594 1595 1596 1597 1598 1599 1600 1600 1601 1602 1602 1603 1604 1604 1605 1605 1606 1606 1606 1606 1606 1607 1609 1609 1610 1611 1611 1612 1612 1611 1610 1610 1610 1610 1610 1610 1610 1610 1610 1610 1610 1609 1609 1609 1608 1608 1608 1607 1607 1606 1606 1606 1605 1605
1571 1571 1573 1574 1575 1576 1577 1578 1579 1580 1581 1582 1583 1584 1584 1585 1586 1586 1587 1588 1588 1589 1589 1590 1590 1591 1592 1592 1592 1593 1594 1595 1596 1597 1598 1599 1600 1600 1601 1602 1602 1603 1604 1604 1605 1605 1606 1606 1606 1606 1607 1608 1608 1609 1610 1610 1611 1611 1612 1612 1612 1611 1610 1611 1611 1611 1611 1611 1611 1610 1610 1610 1610 1609 1609 1608 1608 1608 1607 1607 1607 1606 1606 1606 1605
1571 1572 1573 1574 1575 1576 1578 1579 1580 1581 1582 1583 1584 1585 1586 1586 1587 1588 1588 1589 1589 1590 1590 1591 1591 1592 1592 1593 1593 1594 1595 1595 1596 1597 1598 1599 1600 1601 1602 1602 1603 1604 1604 1605 1605 1606 1606 1607 1607 1607 1608 1608 1609 1610 1610 1611 1611 1612 1612 1612 1612 1612 1611 1611 1611 1612 1612 1612 1611 1611 1611 1610 1610 1610 1609 1609 1608 1608 1608 1607 1607 1607 1606 1606 1606
1572 1572 1573 1574 1576 1577 1578 1579 1581 1582 1583 1584 1585 1586 1587 1587 1588 1588 1589 1589 1590 1590 1591 1592 1592 1593 1593 1593 1594 1595 1596 1596 1597 1598 1599 1600 1600 1601 1602 1603 1604 1604 1605 1605 1606 1606 1607 1608 1608 1608 1609 1609 1610 1610 1611 1611 1612 1612 1613 1613 1613 1612 1612 1611 1612 1613 1613 1612 1612 1612 1611 1611 1611 1610 1610 1609 1609 1608 1608 1608 1607 1607 1607 1606 1606
1572 1573 1573 1575 1576 1577 1579 1580 1581 1583 1584 1585 1585 1587 1587 1588 1589 1589 1589 1590 1590 1591 1592 1592 1593 1593 1594 1594 1595 1596 1597 1597 1598 1599 1600 1601 1601 1602 1603 1603 1604 1604 1605 1606 1607 1607 1608 1608 1609 1609 1609 1610 1610 1611 1611 1612 1613 1613 1614 1614 1613 1613 1613 1612 1612 1613 1613 1613 1613 1612 1612 1611 1611 1611 1610 1610 1609 1609 1609 1608 1608 1608 1608 1607 1607
1572 1573 1574 1575 1576 1577 1579 1581 1582 1583 1585 1586 1587 1587 1588 1589 1590 1591 1591 1591 1592 1592 1592 1593 1593 1594 1595 1596 1596 1597 1598 1598 1599 1599 1600 1601 1602 1602 1603 1603 1604 1605 1606 1607 1608 1608 1608 1609 1609 1610 1610 1611 1611 1612 1612 1613 1614 1614 1615 1614 1614 1614 1614 1613 1613 1613 1614 1614 1613 1613 1612 1612 1612 1611 1611 1610 1610 1610 1609 1609 1609 1609 1608 1608 1608
1571 1573 1574 1575 1576 1578 1579 1581 1582 1584 1585 1586 1587 1588 1589 1590 1591 1592 1592 1593 1593 1593 1593 1593 1594 1595 1595 1596 1597 1597 1598 1598 1599 1600 1601 1601 1602 1602 1603 1604 1605 1606 1607 1608 1608 1608 1609 1610 1610 1610 1611 1611 1612 1612 1613 1614 1614 1615 1615 1615 1615 1615 1615 1615 1614 1614 1614 1614 1613 1613 1613 1612 1612 1612 1611 1611 1611 1610 1610 1610 1610 1609 1609 1609 1608
1571 1573 1575 1575 1576 1578 1580 1581 1583 1584 1585 1586 1588 1589 1590 1591 1592 1593 1593 1594 1594 1594 1595 1595 1595 1596 1596 1597 1597 1598 1599 1599 1599 1600 1601 1602 1603 1603 1604 1605 1606 1606 1607 1608 1609 1609 1610 1610 1610 1610 1611 1612 1612 1613 1613 1614 1614 1615 1615 1615 1615 1615 1615 1615 1615 1615 1614 1614 1613 1613 1613 1613 1613 1612 1612 1611 1611 1611 1611 1611 1611 1610 1610 1609 1609
1571 1573 1575 1575 1576 1578 1580 1581 1583 1585 1586 1587 1588 1590 1591 1592 1593 1594 1594 1595 1595 1595 1596 1596 1596 1596 1597 1598 1598 1599 1600 1600 1600 1601 1602 1603 1603 1604 1605 1606 1606 1607 1608 1609 1609 1609 1610 1610 1611 1611 1611 1612 1612 1613 1614 1614 1614 1615 1616 1616 1616 1616 1616 1616 1615 1615 1615 1614 1613 1613 1613 1613 1613 1613 1612 1612 1611 1611 1612 1611 1611 1611 1611 1610 1610
1572 1574 1574 1575 1577 1579 1580 1581 1583 1585 1586 1587 1589 1590 1591 1592 1593 1594 1595 1595 1596 1596 1597 1597 1597 1598 1598 1598 1599 1600 1600 1600 1601 1602 1602 1603 1604 1605 1605 1606 1607 1607 1608 1609 1609 1610 1610 1611 1611 1611 1612 1612 1612 1613 1614 1614 1615 1615 1616 1616 1616 1616 1616 1616 1616 1616 1615 1615 1614 1613 1613 1613 1613 1613 1613 1612 1612 1612 1612 1612 1612 1612 1611 1611 1610
1572 1573 1574 1576 1577 1579 1580 1581 1583 1584 1586 1588 1589 1590 1591 1592 1593 1595 1595 1596 1597 1597 1598 1598 1598 1599 1599 1599 1600 1600 1601 1601 1602 1603 1603 1604 1604 1605 1606 1606 1607 1607 1608 1609 1609 1610 1610 1611 1611 1612 1612 1612 1613 1613 1614 1615 1615 1616 1616 1616 1616 1616 1616 1616 1616 1616 1615 1615 1614 1614 1614 1614 1614 1613 1613 1612 1612 1612 1612 1613 1613 1612 1612 1611 1611
1572 1573 1574 1576 1577 1579 1580 1581 1583 1584 1586 1587 1589 1590 1591 1592 1593 1595 1596 1596 1597 1598 1598 1599 1599 1599 1600 1601 1601 1601 1602 1602 1603 1603 1604 1604 1605 1606 1606 1607 1607 1608 1608 1609 1609 1610 1611 1611 1612 1613 1613 1613 1613 1614 1615 1615 1615 1616 1616 1616 1616 1616 1616 1616 1616 1616 1615 1615 1615 1615 1614 1614 1615 1614 1613 1613 1613 1613 1613 1613 1613 1613 1612 1612 1611
1572 1573 1574 1576 1577 1579 1580 1581 1582 1584 1585 1587 1588 1589 1591 1592 1593 1595 1596 1596 1597 1598 1599 1599 1600 1600 1601 1601 1602 1602 1603 1603 1604 1604 1605 1605 1606 1606 1607 1607 1607 1608 1609 1609 1610 1610 1611 1612 1612 1613 1613 1614 1614 1615 1615 1615 1616 1616 1616 1617 1616 1616 1616 1616 1615 1615 1616 1616 1616 1615 1615 1615 1615 1615 1614 1614 1613 1614 1613 1613 1614 1613 1612 1612 1612
1571 1573 1574 1576 1578 1579 1579 1581 1582 1583 1585 1587 1588 1589 1591 1592 1593 1594 1596 1597 1597 1598 1599 1600 1600 1601 1601 1602 1602 1603 1604 1604 1605 1605 1605 1606 1606 1607 1607 1607 1608 1608 1609 1609 1610 1611 1611 1612 1613 1614 1614 1614 1614 1615 1615 1615 1615 1616 1616 1617 1617 1616 1616 1616 1616 1615 1616 1616 1616 1616 1616 1615 1615 1615 1615 1615 1614 1614 1614 1614 1614 1614 1613 1613 1612
1570 1572 1574 1576 1577 1578 1579 1580 1582 1583 1585 1587 1588 1590 1591 1592 1594 1595 1596 1597 1598 1599 1600 1600 1601 1601 1602 1603 1603 1604 1604 1605 1605 1606 1606 1606 1607 1607 1607 1608 1608 1608 1609 1610 1610 1611 1612 1612 1613 1614 1614 1614 1615 1615 1615 1615 1615 1616 1616 1616 1616 1616 1616 1616 1616 1616 1616 1616 1616 1616 1616 1616 1615 1615 1616 1616 1615 1615 1615 1614 1614 1614 1614 1614 1613
1569 1571 1573 1575 1576 1578 1579 1580 1581 1583 1585 1587 1589 1590 1592 1593 1594 1596 1597 1598 1598 1599 1600 1601 1601 1602 1603 1603 1604 1604 1605 1605 1606 1606 1606 1607 1607 1607 1608 1608 1608 1609 1609 1610 1611 1611 1612 1613 1613 1614 1614 1614 1615 1615 1616 1615 1616 1616 1616 1616 1616 1617 1616 1616 1616 1616 1616 1616 1617 1617 1617 1616 1616 1616 1616 1616 1616 1616 1615 1615 1615 1616 1615 1614 1613
1568 1570 1572 1574 1575 1577 1579 1580 1581 1583 1585 1587 1588 1590 1592 1593 1595 1596 1597 1598 1599 1599 1600 1601 1601 1602 1603 1603 1604 1604 1605 1605 1606 1606 1607 1607 1607 1607 1608 1608 1609 1609 1610 1610 1611 1612 1613 1613 1614 1614 1614 1614 1615 1615 1616 1616 1616 1616 1616 1616 1617 1617 1616 1616 1616 1616 1616 1617 1617 1617 1617 1617 1617 1617 1617 1616 1616 1616 1616 1616 1616 1617 1616 1615 1614
1567 1569 1571 1572 1574 1576 1578 1579 1581 1583 1585 1586 1588 1590 1591 1593 1595 1596 1597 1597 1598 1599 1600 1601 1601 1602 1603 1604 1604 1604 1605 1605 1606 1606 1607 1607 1607 1607 1608 1608 1609 1610 1610 1611 1611 1612 1613 1613 1614 1614 1614 1615 1615 1615 1615 1616 1616 1616 1616 1617 1617 1617 1617 1616 1616 1616 1617 1617 1617 1617 1617 1617 1617 1618 1617 1617 1616 1616 1616 1616 1617 1616 1616 1615 1614
1566 1568 1570 1571 1573 1575 1577 1578 1580 1582 1584 1586 1588 1589 1591 1592 1594 1595 1596 1597 1598 1599 1600 1601 1602 1602 1603 1604 1604 1604 1605 1605 1606 1606 1607 1607 1607 1608 1608 1609 1609 1610 1610 1611 1612 1612 1613 1613 1614 1615 1614 1615 1615 1615 1616 1616 1616 1616 1616 1617 1617 1617 1617 1617 1616 1616 1617 1617 1617 1617 1618 1617 1617 1618 1618 1617 1617 1617 1616 1617 1616 1616 1616 1616 1614
1565 1567 1570 1571 1572 1574 1576 1578 1580 1582 1583 1585 1587 1588 1590 1592 1593 1594 1596 1597 1597 1598 1600 1601 1602 1602 1603 1603 1604 1604 1605 1605 1605 1606 1607 1607 1607 1608 1608 1609 1609 1610 1610 1611 1612 1612 1613 1613 1614 1614 1615 1615 1615 1616 1616 1616 1616 1616 1616 1617 1617 1617 1617 1617 1617 1617 1617 1617 1617 1617 1618 1617 1618 1618 1618 1617 1617 1618 1617 1617 1616 1616 1616 1616 1615
1565 1567 1569 1571 1572 1573 1576 1578 1579 1581 1583 1585 1586 1587 1589 1591 1593 1594 1595 1596 1597 1598 1599 1600 1602 1602 1603 1603 1603 1604 1605 1605 1605 1606 1606 1607 1607 1608 1608 1609 1610 1610 1610 1611 1612 1612 1613 1613 1614 1614 1615 1615 1616 1616 1616 1616 1616 1616 1617 1617 1617 1617 1617 1617 1617 1617 1617 1617 1617 1617 1617 1618 1618 1618 1618 1618 1618 1618 1618 1617 1616 1616 1616 1616 1615
1564 1566 1569 1570 1572 1573 1576 1577 1579 1581 1582 1584 1585 1586 1588 1590 1591 1593 1594 1596 1597 1598 1599 1600 1601 1602 1602 1603 1603 1603 1604 1605 1605 1606 1606 1607 1607 1608 1608 1609 1609 1610 1611 1611 1612 1612 1613 1613 1614 1614 1614 1615 1616 1616 1616 1617 1617 1617 1617 1617 1617 1617 1617 1617 1617 1617 1617 1617 1617 1617 1617 1618 1618 1618 1618 1618 1618 1618 1618 1617 1617 1616 1616 1616 1616
1563 1565 1568 1569 1571 1573 1575 1577 1579 1581 1582 1583 1585 1586 1588 1589 1590 1592 1593 1595 1596 1597 1598 1599 1600 1601 1601 1602 1602 1603 1603 1604 1605 1605 1606 1606 1607 1608 1608 1609 1609 1610 1611 1611 1612 1612 1612 1613 1613 1614 1614 1615 1616 1616 1616 1616 1617 1617 1617 1617 1618 1618 1618 1618 1618 1618 1618 1617 1617 1617 1617 1617 1618 1618 1618 1618 1618 1618 1618 1618 1617 1617 1617 1617 1617